TimeCDT,TemperatureF,Dew PointF,Humidity,Sea Level PressureIn,VisibilityMPH,Wind Direction,Wind SpeedMPH,Gust SpeedMPH,PrecipitationIn,Events,Conditions,WindDirDegrees,DateUTC
12:11 AM,51.8,50.0,94,29.95,10.0,Calm,Calm,-,N/A,,Clear,0,2013-09-25 05:11:00
12:31 AM,51.8,48.2,88,29.95,7.0,Calm,Calm,-,N/A,,Clear,0,2013-09-25 05:31:00
12:51 AM,51.8,48.2,88,29.96,7.0,Calm,Calm,-,N/A,,Clear,0,2013-09-25 05:51:00
1:11 AM,51.8,50.0,94,29.96,5.0,Calm,Calm,-,N/A,,Clear,0,2013-09-25 06:11:00
1:31 AM,50.0,48.2,94,29.96,4.0,Calm,Calm,-,N/A,,Clear,0,2013-09-25 06:31:00
1:51 AM,48.2,48.2,100,29.96,3.0,Calm,Calm,-,N/A,,Clear,0,2013-09-25 06:51:00
2:11 AM,48.2,48.2,100,29.96,5.0,Calm,Calm,-,N/A,,Clear,0,2013-09-25 07:11:00
2:31 AM,48.2,46.4,93,29.96,3.0,Calm,Calm,-,N/A,,Clear,0,2013-09-25 07:31:00
2:51 AM,48.2,46.4,93,29.96,2.0,Calm,Calm,-,N/A,,Clear,0,2013-09-25 07:51:00
3:11 AM,48.2,48.2,100,29.96,0.8,Calm,Calm,-,N/A,,Mist,0,2013-09-25 08:11:00
3:31 AM,48.2,46.4,93,29.96,3.0,Calm,Calm,-,N/A,,Clear,0,2013-09-25 08:31:00
3:51 AM,46.4,46.4,100,29.96,2.5,Calm,Calm,-,N/A,,Clear,0,2013-09-25 08:51:00
4:11 AM,46.4,46.4,100,29.96,1.8,Calm,Calm,-,N/A,,Mist,0,2013-09-25 09:11:00
4:31 AM,48.2,48.2,100,29.96,3.0,Calm,Calm,-,N/A,,Clear,0,2013-09-25 09:31:00
4:51 AM,48.2,48.2,100,29.97,10.0,Calm,Calm,-,N/A,,Clear,0,2013-09-25 09:51:00
5:11 AM,51.8,48.2,88,29.96,10.0,Calm,Calm,-,N/A,,Clear,0,2013-09-25 10:11:00
5:31 AM,51.8,50.0,94,29.96,10.0,Calm,Calm,-,N/A,,Clear,0,2013-09-25 10:31:00
5:51 AM,51.8,50.0,94,29.96,7.0,Calm,Calm,-,N/A,,Clear,0,2013-09-25 10:51:00
6:11 AM,51.8,48.2,88,29.97,7.0,Calm,Calm,-,N/A,,Clear,0,2013-09-25 11:11:00
6:31 AM,51.8,48.2,88,29.97,7.0,Calm,Calm,-,N/A,,Clear,0,2013-09-25 11:31:00
6:51 AM,50.0,48.2,94,29.97,7.0,SE,3.5,-,N/A,,Clear,140,2013-09-25 11:51:00
7:11 AM,50.0,48.2,94,29.97,5.0,Calm,Calm,-,N/A,,Clear,0,2013-09-25 12:11:00
7:31 AM,50.0,48.2,94,29.97,5.0,Calm,Calm,-,N/A,,Clear,0,2013-09-25 12:31:00
7:51 AM,51.8,48.2,88,29.97,5.0,Calm,Calm,-,N/A,,Clear,0,2013-09-25 12:51:00
8:11 AM,51.8,50.0,94,29.98,5.0,Calm,Calm,-,N/A,,Clear,0,2013-09-25 13:11:00
8:31 AM,53.6,51.8,94,29.98,7.0,SSE,3.5,-,N/A,,Clear,150,2013-09-25 13:31:00
8:51 AM,55.4,51.8,88,29.98,7.0,SSE,5.8,-,N/A,,Clear,150,2013-09-25 13:51:00
9:11 AM,57.2,51.8,82,29.98,7.0,ESE,5.8,-,N/A,,Clear,120,2013-09-25 14:11:00
9:31 AM,59.0,51.8,77,29.98,7.0,SSE,5.8,-,N/A,,Clear,150,2013-09-25 14:31:00
9:51 AM,60.8,51.8,72,29.98,10.0,SSE,4.6,-,N/A,,Clear,150,2013-09-25 14:51:00
10:11 AM,62.6,51.8,68,29.98,10.0,SSE,6.9,-,N/A,,Clear,150,2013-09-25 15:11:00
10:31 AM,64.4,51.8,64,29.98,10.0,SSE,5.8,-,N/A,,Clear,150,2013-09-25 15:31:00
10:51 AM,66.2,51.8,60,29.98,10.0,SE,4.6,-,N/A,,Clear,140,2013-09-25 15:51:00
11:11 AM,66.2,51.8,60,29.98,10.0,SSE,8.1,-,N/A,,Clear,160,2013-09-25 16:11:00
11:31 AM,68.0,51.8,56,29.98,10.0,SSE,6.9,-,N/A,,Clear,160,2013-09-25 16:31:00
11:51 AM,69.8,50.0,49,29.97,10.0,SSE,12.7,-,N/A,,Clear,150,2013-09-25 16:51:00
12:11 PM,69.8,48.2,46,29.97,10.0,SE,15.0,-,N/A,,Clear,130,2013-09-25 17:11:00
12:31 PM,69.8,48.2,46,-9999,10.0,SSE,13.8,-,N/A,,Clear,150,2013-09-25 17:31:00
12:51 PM,71.6,48.2,43,29.95,10.0,SE,10.4,17.3,N/A,,Clear,140,2013-09-25 17:51:00
1:11 PM,71.6,50.0,46,29.94,10.0,ESE,12.7,-,N/A,,Clear,120,2013-09-25 18:11:00
1:31 PM,71.6,48.2,43,29.94,10.0,ESE,12.7,-,N/A,,Clear,120,2013-09-25 18:31:00
1:51 PM,71.6,50.0,46,29.93,10.0,SSE,10.4,16.1,N/A,,Clear,160,2013-09-25 18:51:00
2:11 PM,71.6,50.0,46,29.92,10.0,SSE,9.2,16.1,N/A,,Clear,150,2013-09-25 19:11:00
2:31 PM,73.4,51.8,47,29.91,10.0,ESE,9.2,-,N/A,,Clear,110,2013-09-25 19:31:00
2:51 PM,73.4,50.0,44,29.91,10.0,SSE,11.5,-,N/A,,Clear,150,2013-09-25 19:51:00
3:11 PM,73.4,50.0,44,29.91,10.0,ESE,10.4,-,N/A,,Clear,120,2013-09-25 20:11:00
3:31 PM,73.4,50.0,44,29.90,10.0,SSE,10.4,-,N/A,,Clear,160,2013-09-25 20:31:00
3:51 PM,73.4,50.0,44,29.90,10.0,SE,8.1,-,N/A,,Clear,140,2013-09-25 20:51:00
4:11 PM,73.4,51.8,47,29.89,10.0,South,8.1,-,N/A,,Clear,180,2013-09-25 21:11:00
4:31 PM,73.4,51.8,47,29.89,10.0,SSE,10.4,-,N/A,,Clear,150,2013-09-25 21:31:00
4:51 PM,73.4,51.8,47,29.88,10.0,SSE,9.2,-,N/A,,Clear,150,2013-09-25 21:51:00
5:11 PM,73.4,51.8,47,29.88,10.0,SSE,10.4,-,N/A,,Clear,150,2013-09-25 22:11:00
5:31 PM,73.4,51.8,47,29.88,10.0,SE,9.2,-,N/A,,Clear,130,2013-09-25 22:31:00
5:51 PM,71.6,51.8,50,29.88,10.0,SE,10.4,-,N/A,,Clear,140,2013-09-25 22:51:00
6:11 PM,71.6,51.8,50,29.88,10.0,SE,6.9,-,N/A,,Clear,130,2013-09-25 23:11:00
6:31 PM,69.8,53.6,56,29.88,10.0,SE,5.8,-,N/A,,Clear,130,2013-09-25 23:31:00
6:51 PM,68.0,53.6,60,29.88,10.0,SE,6.9,-,N/A,,Clear,130,2013-09-25 23:51:00
7:11 PM,66.2,53.6,64,29.88,10.0,SE,5.8,-,N/A,,Clear,130,2013-09-26 00:11:00
7:30 PM,66.2,53.6,64,29.88,10.0,SE,6.9,-,N/A,,Clear,130,2013-09-26 00:30:00
7:51 PM,64.4,53.6,68,29.88,10.0,SE,8.1,-,N/A,,Clear,130,2013-09-26 00:51:00
8:11 PM,64.4,53.6,68,29.88,10.0,ESE,9.2,-,N/A,,Clear,120,2013-09-26 01:11:00
8:30 PM,64.4,51.8,64,29.88,10.0,ESE,9.2,-,N/A,,Clear,120,2013-09-26 01:30:00
8:51 PM,62.6,51.8,68,29.87,10.0,ESE,9.2,-,N/A,,Clear,120,2013-09-26 01:51:00
9:11 PM,62.6,51.8,68,29.88,10.0,ESE,9.2,-,N/A,,Clear,120,2013-09-26 02:11:00
9:31 PM,62.6,51.8,68,29.88,10.0,ESE,8.1,-,N/A,,Clear,120,2013-09-26 02:31:00
9:51 PM,60.8,51.8,72,29.89,10.0,SE,8.1,-,N/A,,Clear,130,2013-09-26 02:51:00
10:11 PM,60.8,51.8,72,29.90,10.0,SE,8.1,-,N/A,,Clear,130,2013-09-26 03:11:00
10:31 PM,60.8,51.8,72,29.90,10.0,SE,8.1,-,N/A,,Clear,130,2013-09-26 03:31:00
10:51 PM,59.0,51.8,77,29.90,10.0,SE,6.9,-,N/A,,Clear,130,2013-09-26 03:51:00
11:10 PM,59.0,51.8,77,29.91,10.0,SE,6.9,-,N/A,,Clear,130,2013-09-26 04:10:00
11:31 PM,59.0,51.8,77,29.91,10.0,SE,6.9,-,N/A,,Clear,130,2013-09-26 04:31:00
11:51 PM,57.2,51.8,82,29.92,10.0,SE,6.9,-,N/A,,Clear,130,2013-09-26 04:51:00